Location: Betzi
(47.2343°N, 9.5260°E)
Time: 17:14:28
(UTC+00:00)

ASTEX 1 - Pass Details

Date: 27 May 2022
Orbit: 721 x 741 km, 92.7° (Epoch: 06 July)

Event Time Altitude Azimuth Distance (km) Brightness Sun altitude
Rises 00:09:35 0° 359° (N) 3,151 8.1 -20.6°
Reaches altitude 10° 00:11:59 10° 352° (N) 2,228 6.9 -20.5°
Maximum altitude 00:16:32 39° 284° (WNW) 1,080 4.2 -20.3°
Enters shadow 00:18:08 31° 243° (WSW) 1,276 4.3 -20.2°
